Huron, SD

6:24 AM CDT on July 29, 2016 (GMT -0500)
Huron Regional

Weather History for KHON - July, 2013

Change the Weather History Date:

Monday, July 8, 2013

  Actual Average Record
Temperature  
Mean Temperature 73 °F 73 °F  
Max Temperature 86 °F 86 °F 101 °F (2000)
Min Temperature 60 °F 61 °F 45 °F (1953)
Degree Days  
Heating Degree Days 0 0  
Month to date heating degree days 0 0  
Since 1 June heating degree days 66 51  
Since 1 July heating degree days 0 0  
Cooling Degree Days 8 9  
Month to date cooling degree days 79 66  
Year to date cooling degree days 252 232  
Since 1 June cooling degree days 214 199  
Growing Degree Days 23 (Base 50)    
Moisture  
Dew Point 67 °F    
Average Humidity 76    
Maximum Humidity 100    
Minimum Humidity 54    
Precipitation  
Precipitation T in 0.09 in 0.94 in (1898)
Month to date precipitation 0.28 0.69  
Year to date precipitation 14.33 12.60  
Snow  
Snow 0.00 in 0.00 in 0.00 in ()
Month to date snowfall 0.0 0.0  
Since 1 June snowfall 0.0 0.0  
Since 1 July snowfall 0.0 0.0  
Snow Depth 0.00 in    
Sea Level Pressure  
Sea Level Pressure 29.93 in    
Wind  
Wind Speed 5 mph (ESE)    
Max Wind Speed 10 mph    
Max Gust Speed 14 mph    
Visibility 10 miles    
Events Rain    
T = Trace of Precipitation, MM = Missing Value Source: NWS Daily Summary

Daily Weather History Graph

Daily Weather History Graph

Search for Another Location

Airport or City:

Trip Planner

Search our weather history database for the weather conditions in past years. The results will help you decide how hot, cold, wet, or windy it might be!

Date:

Astronomy

Jul. 08, 2013 Rise Set
Actual Time 5:57 AM CDT 9:18 PM CDT
Civil Twilight 5:21 AM CDT 9:54 PM CDT
Nautical Twilight 4:34 AM CDT 10:41 PM CDT
Astronomical Twilight 3:35 AM CDT 11:39 PM CDT
Moon 6:31 AM CDT (7/8) 9:17 PM CDT (7/8)
Length of Visible Light 16h 33m
Length of Day
15h 21m
New Moon, 0% of the Moon is Illuminated
Jul 8
New Moon
Jul 15
First Quarter
Jul 22
Full
Jul 29
Last Quarter
Aug 6
New

Hourly Weather History & Observations

Time (CDT) Temp. Heat Index Dew Point Humidity Pressure Visibility Wind Dir Wind Speed Gust Speed Precip Events Conditions
12:55 AM 66.9 °F - 64.0 °F 90% 29.96 in 10.0 mi Calm Calm - 0.00 in Rain Light Rain
1:55 AM 63.0 °F - 62.1 °F 97% 29.95 in 10.0 mi North 5.8 mph - 0.00 in   Clear
2:55 AM 63.0 °F - 62.1 °F 97% 29.95 in 10.0 mi Calm Calm - 0.00 in   Clear
3:55 AM 63.0 °F - 61.0 °F 93% 29.94 in 10.0 mi NNW 3.5 mph - 0.00 in   Clear
4:55 AM 60.1 °F - 60.1 °F 100% 29.94 in 10.0 mi NW 4.6 mph - 0.00 in   Clear
5:55 AM 60.1 °F - 60.1 °F 100% 29.96 in 9.0 mi Calm Calm - N/A   Clear
6:55 AM 64.0 °F - 62.1 °F 93% 29.97 in 8.0 mi North 3.5 mph - N/A   Clear
7:55 AM 69.1 °F - 64.0 °F 84% 29.97 in 10.0 mi NNE 3.5 mph - N/A   Clear
8:55 AM 72.0 °F - 64.0 °F 76% 29.98 in 10.0 mi Calm Calm - N/A   Clear
9:55 AM 73.0 °F - 64.0 °F 73% 29.98 in 10.0 mi ENE 5.8 mph - N/A   Clear
10:55 AM 75.9 °F - 66.9 °F 74% 29.98 in 10.0 mi ESE 6.9 mph - N/A   Clear
11:55 AM 79.0 °F - 69.1 °F 72% 29.96 in 10.0 mi East 8.1 mph - N/A   Clear
12:55 PM 82.9 °F 87.0 °F 70.0 °F 65% 29.95 in 10.0 mi SE 8.1 mph - N/A   Clear
1:55 PM 84.9 °F 89.4 °F 70.0 °F 61% 29.95 in 10.0 mi Variable 3.5 mph - N/A   Clear
2:55 PM 84.0 °F 89.0 °F 71.1 °F 65% 29.95 in 10.0 mi South 6.9 mph - N/A   Scattered Clouds
3:55 PM 84.0 °F 88.4 °F 70.0 °F 63% 29.93 in 10.0 mi SE 3.5 mph - N/A   Clear
4:55 PM 84.9 °F 90.7 °F 72.0 °F 65% 29.90 in 10.0 mi SSE 5.8 mph - 0.00 in   Clear
5:55 PM 86.0 °F 91.5 °F 71.1 °F 61% 29.91 in 10.0 mi SE 6.9 mph - N/A   Clear
6:55 PM 84.0 °F 89.0 °F 71.1 °F 65% 29.89 in 10.0 mi SE 3.5 mph - N/A   Partly Cloudy
7:55 PM 84.0 °F 89.0 °F 71.1 °F 65% 29.87 in 10.0 mi SE 5.8 mph - 0.00 in   Clear
8:55 PM 81.0 °F 85.8 °F 73.0 °F 77% 29.86 in 10.0 mi ESE 5.8 mph - N/A   Clear
9:55 PM 81.0 °F 85.2 °F 72.0 °F 74% 29.86 in 10.0 mi SE 8.1 mph - N/A   Clear
10:55 PM 78.1 °F - 72.0 °F 81% 29.85 in 10.0 mi ESE 5.8 mph - N/A   Clear
11:55 PM 77.0 °F - 72.0 °F 84% 29.85 in 10.0 mi SE 6.9 mph - N/A   Clear